Jakarta Soekarno-Hatta, Indonesia

1:25 PM WIB on December 15, 2017 (GMT +0700)
Soekarno-Hatta International

Weather History for WIII - December, 2017

Change the Weather History Date:

Thursday, December 7, 2017

  Actual Average Record
Temperature  
Mean Temperature 84 °F -  
Max Temperature 92 °F - - ()
Min Temperature 75 °F - - ()
Cooling Degree Days 18    
Growing Degree Days 34 (Base 50)    
Moisture  
Dew Point 73 °F    
Average Humidity 71    
Maximum Humidity 94    
Minimum Humidity 41    
Precipitation  
Precipitation 0.00 in - - ()
Sea Level Pressure  
Sea Level Pressure 29.78 in    
Wind  
Wind Speed 6 mph ()    
Max Wind Speed 17 mph    
Max Gust Speed 21 mph    
Visibility 5.0 miles    
Events      
T = Trace of Precipitation, MM = Missing Value Source: Averaged Metar Reports

Daily Weather History Graph

Daily Weather History Graph

Search for Another Location

Airport or City:

Trip Planner

Search our weather history database for the weather conditions in past years. The results will help you decide how hot, cold, wet, or windy it might be!

Date:

Astronomy

Dec. 07, 2017 Rise Set
Actual Time 5:30 AM WIB 5:58 PM WIB
Civil Twilight 5:08 AM WIB 6:21 PM WIB
Nautical Twilight 4:41 AM WIB 6:47 PM WIB
Astronomical Twilight 4:15 AM WIB 7:14 PM WIB
Moon 9:47 PM WIB (12/7) 9:00 AM WIB (12/7)
Length of Visible Light 13h 13m
Length of Day
12h 27m
Waning Gibbous, 82% of the Moon is Illuminated
Dec 7
Waning Gibbous
Dec 10
Last Quarter
Dec 18
New
Dec 26
First Quarter
Jan 2
Full

Hourly Weather History & Observations

Time (WIB) Temp. Heat Index Dew Point Humidity Pressure Visibility Wind Dir Wind Speed Gust Speed Precip Events Conditions
12:00 AM 78.8 °F - 71.6 °F 78% 29.80 in 5.0 mi SSW 3.5 mph - N/A   Partly Cloudy
12:30 AM 78.8 °F - 71.6 °F 78% 29.80 in 5.0 mi SSW 4.6 mph - N/A   Partly Cloudy
1:00 AM 78 °F - 73 °F 80% 29.79 in 5 mi SW 2.3 mph - -   Scattered Clouds
1:00 AM 78.8 °F - 71.6 °F 78% 29.77 in 5.0 mi SSW 4.6 mph - N/A   Partly Cloudy
1:30 AM 77.0 °F - 71.6 °F 83% 29.77 in 5.0 mi SW 5.8 mph - N/A   Partly Cloudy
2:00 AM 77.0 °F - 73.4 °F 89% 29.77 in 5.0 mi SW 5.8 mph - N/A   Partly Cloudy
2:30 AM 75.2 °F - 73.4 °F 94% 29.77 in 5.0 mi SW 4.6 mph - N/A   Partly Cloudy
3:00 AM 75.2 °F - 73.4 °F 94% 29.77 in 5.0 mi WSW 4.6 mph - N/A   Partly Cloudy
3:30 AM 77.0 °F - 73.4 °F 89% 29.77 in 4.3 mi SW 3.5 mph - N/A   Partly Cloudy
4:00 AM 77 °F - 74 °F 87% 29.77 in 4 mi West 3.5 mph - -   Scattered Clouds
4:00 AM 77.0 °F - 73.4 °F 89% 29.74 in 3.1 mi WSW 3.5 mph - N/A   Haze
4:30 AM 77.0 °F - 73.4 °F 89% 29.77 in - SW 3.5 mph - N/A   Partly Cloudy
5:00 AM 77.0 °F - 73.4 °F 89% 29.77 in 1.6 mi SW 3.5 mph - N/A   Partly Cloudy
5:30 AM 77.0 °F - 73.4 °F 89% 29.77 in - SW 3.5 mph - N/A   Partly Cloudy
6:00 AM 77.0 °F - 73.4 °F 89% 29.80 in - SW 3.5 mph - N/A   Partly Cloudy
6:30 AM 78.8 °F - 73.4 °F 83% 29.80 in 3.1 mi SSW 3.5 mph - N/A   Haze
7:00 AM 80.6 °F 86.2 °F 75.2 °F 84% 29.80 in 3.1 mi SW 5.8 mph - N/A   Haze
7:30 AM 82.4 °F 88.2 °F 73.4 °F 74% 29.80 in 3.1 mi SW 8.1 mph - N/A   Haze
8:00 AM 84.2 °F 90.9 °F 73.4 °F 70% 29.83 in 6.2 mi SW 6.9 mph - N/A   Partly Cloudy
8:30 AM 86.0 °F 93.4 °F 73.4 °F 66% 29.80 in 5.0 mi SW 4.6 mph - N/A   Partly Cloudy
9:00 AM 87.8 °F 95.6 °F 73.4 °F 62% 29.83 in 6.2 mi WSW 8.1 mph - N/A   Partly Cloudy
9:30 AM 89.6 °F 96.2 °F 71.6 °F 55% 29.80 in 6.2 mi WSW 9.2 mph - N/A   Partly Cloudy
10:00 AM 92 °F - 71 °F 41% 29.81 in 6 mi WSW 5.8 mph - -   Scattered Clouds
10:00 AM 89.6 °F 98.2 °F 73.4 °F 59% 29.80 in 6.2 mi WSW 8.1 mph - N/A   Partly Cloudy
10:30 AM 91.4 °F 98.4 °F 71.6 °F 52% 29.80 in 6.2 mi West 11.5 mph - N/A   Partly Cloudy
11:00 AM 91.4 °F 98.4 °F 71.6 °F 52% 29.80 in 6.2 mi West 11.5 mph - N/A   Scattered Clouds
11:30 AM 91.4 °F 102.5 °F 75.2 °F 59% 29.77 in 6.2 mi WNW 9.2 mph - N/A   Scattered Clouds
12:00 PM 89.6 °F 99.8 °F 75.2 °F 62% 29.77 in 6.2 mi NW 10.4 mph - N/A   Scattered Clouds
12:30 PM 91.4 °F 102.5 °F 75.2 °F 59% 29.77 in 6.2 mi NW 16.1 mph - N/A   Scattered Clouds
1:00 PM 91 °F - 74 °F 49% 29.76 in 6 mi West 9.2 mph - -   Partly Cloudy
1:00 PM 91.4 °F 102.5 °F 75.2 °F 59% 29.74 in 6.2 mi WNW 15.0 mph - N/A   Scattered Clouds
1:30 PM 89.6 °F 98.2 °F 73.4 °F 59% 29.74 in 6.2 mi WNW 6.9 mph 20.7 mph N/A   Scattered Clouds
2:00 PM 89.6 °F 102.2 °F 77.0 °F 66% 29.74 in 6.2 mi NW 12.7 mph - N/A   Scattered Clouds
2:30 PM 89.6 °F 99.8 °F 75.2 °F 62% 29.71 in 6.2 mi NNW 13.8 mph - N/A   Partly Cloudy
3:00 PM 89.6 °F 99.8 °F 75.2 °F 62% 29.71 in 6.2 mi NW 13.8 mph - N/A   Scattered Clouds
3:30 PM 89.6 °F 98.2 °F 73.4 °F 59% 29.71 in 6.2 mi WNW 15.0 mph - N/A   Scattered Clouds
4:00 PM 90 °F - 73 °F 48% 29.70 in 6 mi WNW 9.2 mph - -   Partly Cloudy
4:30 PM 87.8 °F 95.6 °F 73.4 °F 62% 29.71 in 5.6 mi NW 12.7 mph - N/A   Scattered Clouds
5:00 PM 87.8 °F 95.6 °F 73.4 °F 62% 29.71 in 4.3 mi NW 17.3 mph - N/A   Mostly Cloudy
5:30 PM 86.0 °F 93.4 °F 73.4 °F 66% 29.74 in 3.7 mi WSW 11.5 mph - N/A   Mostly Cloudy
6:00 PM 86.0 °F 91.8 °F 71.6 °F 62% 29.77 in 3.7 mi SW 11.5 mph - N/A   Mostly Cloudy
6:30 PM 84.2 °F 89.6 °F 71.6 °F 66% 29.77 in 4.3 mi SW 12.7 mph - N/A   Scattered Clouds
7:00 PM 86 °F - 72 °F 55% 29.80 in 4 mi WSW 6.9 mph - -   Partly Cloudy
7:00 PM 84.2 °F 89.6 °F 71.6 °F 66% 29.80 in 4.3 mi SW 9.2 mph - N/A   Scattered Clouds
7:30 PM 84.2 °F 89.6 °F 71.6 °F 66% 29.80 in 5.0 mi SW 13.8 mph - N/A   Scattered Clouds
8:00 PM 82.4 °F 87.2 °F 71.6 °F 70% 29.83 in 5.0 mi WSW 11.5 mph - N/A   Scattered Clouds
8:30 PM 82.4 °F 87.2 °F 71.6 °F 70% 29.83 in 5.0 mi WSW 11.5 mph - N/A   Scattered Clouds
9:00 PM 82.4 °F 88.2 °F 73.4 °F 74% 29.83 in 5.0 mi WSW 10.4 mph - N/A   Scattered Clouds
9:30 PM 82.4 °F 88.2 °F 73.4 °F 74% 29.86 in 5.0 mi WSW 11.5 mph - N/A   Scattered Clouds
10:00 PM 83 °F - 74 °F 68% 29.86 in 4 mi WSW 4.6 mph - -   Partly Cloudy
10:00 PM 82.4 °F 88.2 °F 73.4 °F 74% 29.86 in 4.3 mi SW 9.2 mph - N/A   Scattered Clouds
10:30 PM 82.4 °F 89.5 °F 75.2 °F 79% 29.86 in 4.3 mi SW 9.2 mph - N/A   Scattered Clouds
11:00 PM 80.6 °F 86.2 °F 75.2 °F 84% 29.83 in 4.3 mi WSW 8.1 mph - N/A   Scattered Clouds
11:30 PM 80.6 °F 86.2 °F 75.2 °F 84% 29.83 in 4.3 mi WSW 6.9 mph - N/A   Partly Cloudy